Miscellaneous Local Product
Issued by NWS North Platte, NE

Home | Current Version | Previous Version | Graphics & Text | Print | Product List | Glossary On
Versions: 1 2 3 4 5 6 7 8 9 10 11 12 13 14 15 16 17 18 19 20 21 22 23 24 25 26 27 28 29 30 31 32 33 34 35 36 37 38 39 40 41 42 43 44 45 46 47 48 49 50
000
AXUS43 KLBF 261510
MISLBF


WESTERN AND NORTH CENTRAL NEBRASKA HOURLY WEATHER ROUNDUP
NATIONAL WEATHER SERVICE NORTH PLATTE NE
900 AM CST SUN FEB 26 2017

NOTE: "FAIR" INDICATES FEW OR NO CLOUDS BELOW 12,000 FEET WITH NO
SIGNIFICANT WEATHER AND/OR OBSTRUCTIONS TO VISIBILITY.

NOTE: STATIONS NOT REPORTING VARIABLES SUCH AS SKY/WEATHER OR
PRESSURE ARE PROVIDED BY RAWS AND APRS NETWORKS AND ARE NOT UNDER
NATIONAL WEATHER SERVICE QUALITY CONTROL.

...OBSERVATIONS IN AND NEAR THE EASTERN PANHANDLE OF NEBRASKA...

CITY           SKY/WX    TMP DP  RH WIND       PRES   REMARKS
PINE RIDGE     SUNNY     17   4  56 W10       29.83R WCI   5
CHADRON        SUNNY      8  -1  66 NW5       29.85R WCI   0
ALLIANCE       CLOUDY    -1  -7  75 W8        29.82R WCI -15
SIDNEY         SUNNY     20   7  57 NW17      29.84R WCI   5
CRESCENT LAKE    N/A     18   4  53 NW9G16      N/A  WCI   7
$$

...OBSERVATIONS IN NORTHERN NEBRASKA AND FAR SOUTHERN SOUTH DAKOTA...

CITY           SKY/WX    TMP DP  RH WIND       PRES   REMARKS
WINNER         FAIR      25  13  60 CALM      29.83R
VALENTINE      SUNNY     10   2  69 W12       29.84R WCI  -5
THEDFORD       SUNNY     17   7  65 W7        29.86R WCI   7
AINSWORTH      SUNNY     16   9  75 W9        29.84R WCI   4
O`NEILL        SUNNY     20  11  70 W9        29.86R WCI   9
ORD            SUNNY     22  10  60 CALM      29.88R
BROKEN BOW     SUNNY     22  10  60 NW6       29.87R WCI  14
VALENTINE NWR    N/A     16   6  64 W7          N/A  WCI   6
BUTTE            N/A     17  11  78 SW6         N/A  WCI   9
HALSEY           N/A     19   5  54 W7          N/A  WCI  10
CHAMBERS         N/A     25  12  56 SW3         N/A
EWING            N/A     18  12  77 W7          N/A  WCI   9
$$

...OBSERVATIONS IN SOUTHWEST NEBRASKA AND FAR NORTHEAST COLORADO...

CITY           SKY/WX    TMP DP  RH WIND       PRES   REMARKS
HOLYOKE        FAIR      21  14  73 W6        29.88R WCI  14
IMPERIAL       SUNNY     25   9  50 W8        29.89R WCI  16
OGALLALA       SUNNY     20  10  65 W8        29.88R WCI  11
NORTH PLATTE   SUNNY     22  13  68 W8        29.88R WCI  12
MCCOOK         SUNNY     26  18  71 W5        29.93R WCI  20
LEXINGTON      SUNNY     27  16  63 W12       29.90S WCI  17
STAPLETON        N/A     18  10  70 CALM        N/A
GOTHENBURG       N/A     24  11  58 W6          N/A  WCI  17
CALLAWAY         N/A     21  12  68 NW13        N/A  WCI   9
$$

...OBSERVATIONS IN CENTRAL LINCOLN COUNTY AREA...

CITY           SKY/WX    TMP DP  RH WIND       PRES   REMARKS
N.P. AIRPORT   SUNNY     22  13  68 W8        29.88R WCI  12
N.P. DOWNTOWN    N/A     18  11  74 W3          N/A
N.P. SOUTHEAST   N/A     22  11  62 W5G12       N/A  WCI  16
N.P. HILLCREST   N/A     18  12  78 NW7         N/A  WCI   9
$$

...SOME OBSERVATIONS FROM AROUND THE REGION...

CITY           SKY/WX    TMP DP  RH WIND       PRES   REMARKS
LARAMIE        CLOUDY    10  -2  58 SW18      29.72S WCI  -8
CHEYENNE       CLOUDY    18   0  45 W17       29.76R WCI   3
DENVER         SUNNY     20   8  60 SE12      29.79R WCI   8
AKRON          SUNNY     23  10  57 CALM      29.84R
SCOTTSBLUFF    CLOUDY    10   1  67 N5        29.84R WCI   2
RAPID CITY     SUNNY     23  12  62 SW6       29.77R WCI  16
BISMARCK       CLOUDY    14   9  80 S6        29.78S WCI   5
PIERRE         SUNNY     23  18  81 SW10      29.80R WCI  12
SIOUX FALLS    MOSUNNY   24  18  77 W13       29.82R WCI  12
OMAHA          MOSUNNY   36  18  48 W12       29.92R WCI  28
GRAND ISLAND   SUNNY     29  17  61 W14       29.91R WCI  18
KANSAS CITY    DRIZZLE   37  32  82 S10       30.03R WCI  30
WICHITA        PTSUNNY   37  22  54 S9        29.95R WCI  30
OKLAHOMA CITY  CLOUDY    43  26  51 S16       29.93R
DALLAS         CLOUDY    51  34  52 S16       29.97R
AMARILLO       SUNNY     40  26  57 NW10      29.87R WCI  33
DODGE CITY     SUNNY     31  17  56 N12       29.91R WCI  22
HAYS           SUNNY     30  18  60 CALM      29.95R
GOODLAND       SUNNY     23  13  65 W5        29.89R WCI  17
$$




USA.gov is the U.S. government's official web portal to all federal, state and local government web resources and services.